sat.trackr.live / text

‹ back to catalog

STARLINK-36126

NORAD 66866 · 2025-281U

PAYLOAD ACTIVE UNKNOWN

§ Identity

Operator
Country
US
Launch date
2025-12-02
Launch site
AFETR
Launch vehicle
Mass (kg)
RCS (m²)

Purposes: comms

External: N2YO · Heavens-Above · Gunter

§ Orbital elements

Epoch: 2026-05-24T19:37:28.858368Z

Period
94.27 min
Inclination
43.0029°
Eccentricity
0.0002634
Mean motion
15.27593973 rev/d
Perigee alt
481.2 km
Apogee alt
484.8 km
Semi-major
6,861.1 km
B*
5.3527e-4
RAAN
273.9474°
Arg perigee
260.0730°
Mean anomaly
99.9824°
Rev number
2,781

§ Raw data

STARLINK-361261 66866U 25281U   26144.81769512  .00014503  00000+0  53527-3 0  99932 66866  43.0029 273.9474 0002634 260.0730  99.9824 15.27593973 27811

JSON: /api/v1/satellites/66866 · /tle

For live sub-satellite position, see the globe view (requires WebGL).

§ Visibility from observer

Set your observer location to see the next 7 days of passes ≥ 10°. The values pass through the URL so the page stays shareable.

No JS? Fill the form by hand. The geolocation button needs JavaScript.